Regional Weather Roundup
Issued by NWS

Home | Current Version | Previous Version | Graphics & Text | Print | Product List | Glossary On
Versions: 1 2 3 4 5 6 7 8 9 10 11 12 13 14 15 16 17 18 19 20 21 22 23 24 25 26 27 28 29 30 31 32 33 34 35 36 37 38 39 40 41 42 43 44 45 46 47 48 49 50
000
ASUS43 KOAX 200810
RWRNE

WEATHER ROUNDUP FOR NEBRASKA
NATIONAL WEATHER SERVICE OMAHA NE
300 AM CDT MON OCT 20 2014

NOTES: SATELLITE DATA IS BEING USED TO AUGMENT CLOUD COVER ABOVE
       12000 FEET.
       "FAIR" INDICATES FEW OR NO CLOUDS BELOW 12,000 FEET WITH NO
       SIGNIFICANT WEATHER AND/OR OBSTRUCTIONS TO VISIBILITY.

  * THESE STATIONS DO NOT REPORT WEATHER SUCH AS RAIN...SNOW OR FOG.

NEZ001>004-019>022-054>056-200900-
NEBRASKA PANHANDLE

CITY           SKY/WX    TMP DP  RH WIND       PRES   REMARKS
SCOTTSBLUFF    CLEAR     39  36  89 N6        30.13S WCI  35
ALLIANCE       CLEAR     34  31  88 CALM      30.13S
CHADRON        CLEAR     37  35  92 CALM      30.10S
KIMBALL        CLEAR     46  36  67 SW6       30.15S
SIDNEY         CLEAR     41  34  76 W9        30.14F
$$

NEZ057>060-069>072-079>082-200900-
SOUTHWEST NEBRASKA

CITY           SKY/WX    TMP DP  RH WIND       PRES   REMARKS
NORTH PLATTE   CLEAR     38  34  85 CALM      30.09S
IMPERIAL       CLEAR     40  34  79 N7        30.12R
LEXINGTON      CLEAR     42  40  93 W7        30.07S
MCCOOK         CLEAR     41  38  89 SW5       30.09R
OGALLALA       CLEAR     38  34  85 W5        30.11S WCI  35
$$

NEZ005>010-023>029-035>040-094-200900-
NORTH CENTRAL NEBRASKA

CITY           SKY/WX    TMP DP  RH WIND       PRES   REMARKS
VALENTINE      CLEAR     37  33  85 W3        30.09R
AINSWORTH      CLEAR     42  36  77 W6        30.08S
BROKEN BOW     CLEAR     42  36  79 CALM      30.06S
O`NEILL        CLEAR     45  40  80 NW5       30.06R
ORD            CLEAR     41  37  86 NW7       30.05R
THEDFORD       CLEAR     43  37  79 W5        30.10S
$$

NEZ041-046>049-061>064-073>077-083>087-200900-
SOUTH CENTRAL NEBRASKA

CITY           SKY/WX    TMP DP  RH WIND       PRES   REMARKS
GRAND ISLAND   CLEAR     46  42  86 W3        30.04R
AURORA         CLEAR     47  44  89 W6        30.02S
HASTINGS       CLEAR     49  43  80 CALM      30.04R
HEBRON         CLEAR     46  43  91 CALM      30.03R
HOLDREGE       CLEAR     46  43  89 CALM      30.06S
KEARNEY *      CLEAR     48  43  81 CALM      30.06R
YORK           CLEAR     45  45 100 W3        30.02R
$$

NEZ011>018-030>034-042>045-200900-
NORTHEAST NEBRASKA

CITY           SKY/WX    TMP DP  RH WIND       PRES   REMARKS
NORFOLK        CLEAR     46  40  79 W3        30.01R
ALBION         CLEAR     41  37  84 NW7       30.03S
BLAIR          CLEAR     53  47  80 NW5       29.98R
COLUMBUS *     CLEAR     45  39  81 W3        30.02S
FREMONT        CLEAR     48  46  92 NW6       29.99R
TEKAMAH        CLEAR     47  43  86 N6        29.98R
WAYNE          CLEAR     44  38  82 CALM      30.02R
$$

NEZ050>053-065>068-078-088>093-200900-
SOUTHEAST NEBRASKA

CITY           SKY/WX    TMP DP  RH WIND       PRES   REMARKS
LINCOLN        CLEAR     49  45  86 CALM      30.01S
OMAHA EPPLEY   CLEAR     51  46  83 CALM      29.98R
BEATRICE       CLEAR     48  46  93 CALM      30.02R
FALLS CITY     CLEAR     53  48  83 W3        29.99S
NEBRASKA CITY  CLEAR     55  47  75 W9        29.99R
PLATTSMOUTH    CLEAR     54  47  79 W7        29.98R
$$

NEZ044-045-051>053-067-200900-
OMAHA AREA

CITY           SKY/WX    TMP DP  RH WIND       PRES   REMARKS
OMAHA EPPLEY   CLEAR     51  46  83 CALM      29.98R
BLAIR          CLEAR     53  47  80 NW5       29.98R
FREMONT        CLEAR     48  46  92 NW6       29.99R
MILLARD        CLEAR     49  47  94 CALM      29.98R
OFFUTT AFB     CLEAR     52  52  99 W3        29.97R
PLATTSMOUTH    CLEAR     54  47  79 W7        29.98R
WAHOO          FAIR      51  45  77 NW7       29.99R
$$


USA.gov is the U.S. government's official web portal to all federal, state and local government web resources and services.